FIREFLY ALPHA R/B, 60210

Orbit data source: Space-Track

FIREFLY ALPHA R/B, 60210 is space debris in SSO originally from a launch on Thu, 04 Jul 2024 UTC launched from the Air Force Western Test Range (AFWTR). Debris objects in space refer to the collection of defunct objects orbiting the Earth. Examples of debris include non-operational satellites, rocket bodies, and fragments generated from explosions, collisions, or faulty payload assembly.

Loading next visibility...
Identifier
60210, 2024-125H
Orbit
SSO
Country
Flag of USUS
Related business
Manufacturer
Firefly
Mission
Spacecraft
Bus & Motor
FIREFLY A2, Unknown motor
Mass
909 kg wet, 909 kg dry
Launch date (UTC)
2024-07-04 (1 year ago)
Launch vehicle
Unknown
Launch site
Air Force Western Test Range (AFWTR)
Object type
Payload
Rocket body
Debris
Shape & HBR
Unknown
Radar Cross Section
Large (>1 m²)

Expand to show TLE details & history
Last TLE update: 9 hours ago

TLE from 9 hours ago
0 FIREFLY ALPHA R/B
1 60210U 24125H   25260.89496296  .00018665  00000-0  38017-3 0  9999
2 60210  97.2558 116.6519 0035962 109.5732 250.9406 15.45579095 67658
Epoch: 2025-09-17T21:28Z
TLE epoch observation values (Epoch: 2025-09-17T21:28:44.799Z)
Latitude
-0.00002°
Longitude
157.40089°
Altitude
440.881 km
Speed
7.643 km/s
True Right ascension
07h 46m 36s
True Declination
0° 00' 00"
Sunlit
Object was in daylight at epoch
Visualization orbit readout
Latitude
Unknown
Longitude
Unknown
Altitude
Unknown
Speed
Unknown
Apparent Right ascension
Unknown
Apparent Declination
Unknown
Sunlit
N/A
Visualization observer readout
Local Sidereal Time
23:34:39
Azimuth
Unknown
Elevation
Unknown
Doppler factor
Unknown
Orbital elements
Apogee altitude
451.074 km
Perigee altitude
402.131 km
Semi-major axis
6,804.739 km
Eccentricity
0.0036
Inclination
97.2558°
RAAN
116.6519°
Arg. of periapsis
109.5732°
True anomaly
250.55167°
Mean anomaly
250.9406°
Eccentric anomaly
250.74608°
Mean motion
3.86657 °/min
Orbital period
93.11 mins
BSTAR
0.00038017
Loading maneuver chart data...
Computing Atmospheric mass density...
Loading historical data...
Loading historical data...
Loading historical data...
Loading historical data...
Loading historical data...
Loading historical data...
Loading historical data...

Documentation

Showing up to 5 results
|